Location: Los Ranchitos
(37.9930°N, 122.5425°W)
Time: 07:46:23
(UTC+00:00)

SL-08 RB Rocket - Pass Details

Date: 21 September 2020
Orbit: 646 x 684 km, 97.8° (Epoch: 28 October)

Event Time Altitude Azimuth Distance (km) Brightness Sun altitude
Exits shadow 03:08:57 15° 127° (SE) 1,789 5.4 -12.5°
Maximum altitude 03:12:07 32° 71° (ENE) 1,148 4.5 -13.1°
Drops below altitude 10° 03:16:10 10° 9° (N) 2,092 6.3 -13.9°
Sets 03:18:33 0° 359° (N) 3,003 7.3 -14.4°
